Weather History for KBAF - March, 2013

Change the Weather History Date:

Thursday, March 21, 2013

  Actual Average Record
Temperature  
Mean Temperature 28 °F -  
Max Temperature 39 °F 44 °F 77 °F (2012)
Min Temperature 18 °F 26 °F 12 °F (2007)
Degree Days  
Heating Degree Days 36    
Moisture  
Dew Point 13 °F    
Average Humidity 58    
Maximum Humidity 92    
Minimum Humidity 32    
Precipitation  
Precipitation 0.00 in - - ()
Sea Level Pressure  
Sea Level Pressure 29.73 in    
Wind  
Wind Speed 3 mph (NW)    
Max Wind Speed 16 mph    
Max Gust Speed 23 mph    
Visibility 10 miles    
Events      
Averages and records for this station are not official NWS values.
T = Trace of Precipitation, MM = Missing Value Source: NWS Daily Summary

Daily Weather History Graph

Daily Weather History Graph

Search for Another Location

Airport or City:

Trip Planner

Search our weather history database for the weather conditions in past years. The results will help you decide how hot, cold, wet, or windy it might be!

Date:

Astronomy

Mar. 21, 2013 Rise Set
Actual Time 6:52 AM EDT 7:04 PM EDT
Civil Twilight 6:24 AM EDT 7:32 PM EDT
Nautical Twilight 5:51 AM EDT 8:05 PM EDT
Astronomical Twilight 5:17 AM EDT 8:38 PM EDT
Moon 1:26 PM EDT (3/21) 3:17 AM EDT (3/21)
Length of Visible Light 13h 08m
Length of Day
12h 12m
Waxing Gibbous, 68% of the Moon is Illuminated
Mar 21
Waxing Gibbous
Mar 27
Full
Apr 3
Last Quarter
Apr 10
New
Apr 18
First Quarter

Hourly Weather History & Observations

Time (EDT) Temp. Windchill Dew Point Humidity Pressure Visibility Wind Dir Wind Speed Gust Speed Precip Events Conditions
12:53 AM 19.9 °F - 18.0 °F 92% 29.83 in 10.0 mi Calm Calm - N/A   Clear
1:53 AM 19.0 °F - 16.0 °F 88% 29.83 in 10.0 mi Calm Calm - N/A   Clear
2:53 AM 19.9 °F - 17.1 °F 89% 29.82 in 10.0 mi Calm Calm - N/A   Mostly Cloudy
3:53 AM 19.9 °F - 17.1 °F 89% 29.81 in 10.0 mi Calm Calm - N/A   Scattered Clouds
4:53 AM 18.0 °F 12.7 °F 16.0 °F 92% 29.80 in 10.0 mi SSE 3.5 mph - N/A   Overcast
5:53 AM 19.9 °F - 17.1 °F 89% 29.79 in 10.0 mi Calm Calm - N/A   Overcast
6:53 AM 19.9 °F - 16.0 °F 85% 29.80 in 10.0 mi Calm Calm - N/A   Overcast
7:53 AM 21.0 °F - 17.1 °F 85% 29.81 in 10.0 mi Calm Calm - N/A   Overcast
8:53 AM 24.1 °F - 21.0 °F 88% 29.80 in 10.0 mi Calm Calm - N/A   Overcast
9:53 AM 30.0 °F 24.1 °F 16.0 °F 56% 29.77 in 10.0 mi North 5.8 mph - N/A   Overcast
10:53 AM 32.0 °F 24.2 °F 10.9 °F 42% 29.76 in 10.0 mi NW 9.2 mph - N/A   Overcast
11:53 AM 33.1 °F 28.7 °F 10.9 °F 40% 29.74 in 10.0 mi North 4.6 mph - N/A   Overcast
12:53 PM 34.0 °F - 9.0 °F 35% 29.72 in 10.0 mi Calm Calm - N/A   Overcast
1:53 PM 36.0 °F 33.3 °F 9.0 °F 33% 29.68 in 10.0 mi Variable 3.5 mph - N/A   Mostly Cloudy
2:53 PM 37.0 °F - 10.0 °F 33% 29.64 in 10.0 mi Calm Calm - N/A   Partly Cloudy
3:53 PM 39.0 °F - 10.9 °F 32% 29.63 in 10.0 mi Calm Calm - N/A   Mostly Cloudy
4:53 PM 37.9 °F 34.4 °F 10.9 °F 33% 29.62 in 10.0 mi SSE 4.6 mph - N/A   Overcast
5:53 PM 37.9 °F 32.7 °F 10.9 °F 33% 29.62 in 10.0 mi WNW 6.9 mph - N/A   Mostly Cloudy
6:53 PM 36.0 °F 29.6 °F 12.0 °F 37% 29.63 in 10.0 mi WNW 8.1 mph - N/A   Partly Cloudy
7:53 PM 34.0 °F 26.6 °F 9.0 °F 35% 29.65 in 10.0 mi NW 9.2 mph - N/A   Clear
8:53 PM 32.0 °F 23.0 °F 12.0 °F 44% 29.66 in 10.0 mi NNW 11.5 mph 18.4 mph N/A   Clear
9:53 PM 32.0 °F 24.2 °F 12.0 °F 44% 29.67 in 10.0 mi NNW 9.2 mph - N/A   Partly Cloudy
10:53 PM 30.9 °F 19.8 °F 10.0 °F 42% 29.66 in 10.0 mi NW 16.1 mph 23.0 mph N/A   Partly Cloudy
11:53 PM 28.9 °F 19.8 °F 10.9 °F 47% 29.68 in 10.0 mi NW 10.4 mph 19.6 mph N/A   Clear